This is the latest recevied weather packets stored in our database for station/object K4HOG. If no packets are shown the sender has not sent any weather packets the latest 10 day(s).
| Time | Temp. | Humidity | Pressure | Rain* | Wind** | Luminosity | Snow |
|---|---|---|---|---|---|---|---|
| 1777994229 | 26.11° C | 60% | 1016.4 hPa | 0 mm | - | 660 W/m² | - |
| 1777993927 | 26.11° C | 56% | 1016.6 hPa | 0 mm | - | 614 W/m² | - |
| 1777993623 | 26.11° C | 61% | 1016.4 hPa | 0 mm | - | 170 W/m² | - |
| 1777993321 | 26.11° C | 63% | 1016.4 hPa | 0 mm | - | 251 W/m² | - |
| 1777993020 | 26.11° C | 63% | 1016.6 hPa | 0 mm | - | 252 W/m² | - |
| 1777992719 | 26.11° C | 64% | 1016.3 hPa | 0 mm | - | 182 W/m² | - |
| 1777992416 | 25.56° C | 65% | 1016.5 hPa | 0 mm | - | 280 W/m² | - |
| 1777992114 | 25.56° C | 67% | 1016.5 hPa | 0 mm | - | 299 W/m² | - |
| 1777991811 | 25.56° C | 66% | 1016.6 hPa | 0 mm | - | 161 W/m² | - |
| 1777991508 | 25.56° C | 66% | 1016.3 hPa | 0 mm | - | 239 W/m² | - |
| 1777991205 | 25° C | 69% | 1016.2 hPa | 0 mm | - | 255 W/m² | - |
| 1777990903 | 25° C | 71% | 1016.3 hPa | 0 mm | - | 177 W/m² | - |
| 1777990601 | 24.44° C | 70% | 1016.2 hPa | 0 mm | - | 115 W/m² | - |
| 1777989993 | 24.44° C | 71% | 1016.4 hPa | 0 mm | - | 136 W/m² | - |
| 1777989690 | 24.44° C | 73% | 1016.2 hPa | 0 mm | - | 103 W/m² | - |
| 1777989386 | 24.44° C | 72% | 1016.1 hPa | 0 mm | - | 96 W/m² | - |
| 1777989083 | 23.89° C | 74% | 1016 hPa | 0 mm | - | 194 W/m² | - |
| 1777988779 | 23.89° C | 74% | 1016.1 hPa | 0 mm | - | 299 W/m² | - |
| 1777988477 | 23.33° C | 75% | 1016 hPa | 0 mm | - | 121 W/m² | - |
| 1777988174 | 23.33° C | 75% | 1016.1 hPa | 0 mm | - | 91 W/m² | - |
| 1777987869 | 22.78° C | 76% | 1016.1 hPa | 0 mm | - | 93 W/m² | - |
| 1777987566 | 22.78° C | 76% | 1015.9 hPa | 0 mm | - | 107 W/m² | - |
| 1777987264 | 22.78° C | 77% | 1016.2 hPa | 0 mm | - | 79 W/m² | - |
| 1777986960 | 22.78° C | 76% | 1016.3 hPa | 0 mm | - | 67 W/m² | - |
| 1777986658 | 22.22° C | 78% | 1016.3 hPa | 0 mm | - | 79 W/m² | - |
* Rain latest hour (hover to see other rain measurements)
** Current wind speed in m/s (hover to see current wind gust speed)